Terminal Aerodrome Forecast
Issued by NWS Newport/Morehead City, NC

Home | Current Version | Previous Version | Text Only | Print | Product List | Glossary On
Versions: 1 2 3 4 5 6 7 8 9 10 11 12 13 14 15 16 17 18 19 20 21 22 23 24 25
000
FTUS42 KMHX 271741
TAFEWN
TAF
KEWN 271741Z 2718/2818 26010KT P6SM SCT250
     FM280300 21005KT P6SM BKN070
     FM281200 21005KT P6SM BKN050=

USA.gov is the U.S. government's official web portal to all federal, state and local government web resources and services.